Time,TemperatureF,DewpointF,PressureIn,WindDirection,WindDirectionDegrees,WindSpeedMPH,WindSpeedGustMPH,Humidity,HourlyPrecipIn,Conditions,Clouds,dailyrainin,SoftwareType,DateUTC
2013-03-03 00:00:00,23.7,17.9,30.11,West,265,1.0,1.0,78,0.00,,---,0.00,VWS V14.01,2013-03-03 06:00:00,
2013-03-03 00:05:00,23.7,17.9,30.11,WNW,285,3.0,4.0,78,0.00,,---,0.00,VWS V14.01,2013-03-03 06:05:00,
2013-03-03 00:10:00,23.7,17.9,30.11,WNW,291,1.0,4.0,78,0.00,,---,0.00,VWS V14.01,2013-03-03 06:10:00,
2013-03-03 00:15:00,23.7,18.1,30.11,WSW,253,1.0,4.0,79,0.00,,---,0.00,VWS V14.01,2013-03-03 06:15:00,
2013-03-03 00:20:00,23.7,18.1,30.10,WNW,297,2.0,4.0,79,0.00,,---,0.00,VWS V14.01,2013-03-03 06:20:00,
2013-03-03 00:25:00,23.6,18.4,30.11,WNW,301,1.0,4.0,80,0.00,,---,0.00,VWS V14.01,2013-03-03 06:25:00,
2013-03-03 00:30:00,23.5,18.5,30.11,NW,312,1.0,1.0,81,0.00,,---,0.00,VWS V14.01,2013-03-03 06:30:00,
2013-03-03 00:35:00,23.5,18.5,30.11,West,271,2.0,3.0,81,0.00,,---,0.00,VWS V14.01,2013-03-03 06:35:00,
2013-03-03 00:40:00,23.4,18.7,30.11,NW,304,0.0,4.0,82,0.00,,---,0.00,VWS V14.01,2013-03-03 06:40:00,
2013-03-03 00:45:00,23.3,18.6,30.11,WNW,287,2.0,4.0,82,0.00,,---,0.00,VWS V14.01,2013-03-03 06:45:00,
2013-03-03 00:50:00,23.2,18.5,30.11,West,264,1.0,4.0,82,0.00,,---,0.00,VWS V14.01,2013-03-03 06:50:00,
2013-03-03 00:55:00,23.1,18.7,30.11,WNW,284,4.0,6.0,83,0.00,,---,0.00,VWS V14.01,2013-03-03 06:55:00,
2013-03-03 01:00:00,23.0,18.3,30.11,WNW,301,2.0,4.0,82,0.00,,---,0.00,VWS V14.01,2013-03-03 07:00:00,
2013-03-03 01:05:00,22.9,18.2,30.11,WNW,294,0.0,6.0,82,0.00,,---,0.00,VWS V14.01,2013-03-03 07:05:00,
2013-03-03 01:10:00,22.9,18.5,30.11,WNW,287,4.0,6.0,83,0.00,,---,0.00,VWS V14.01,2013-03-03 07:10:00,
2013-03-03 01:15:00,22.9,18.2,30.11,WNW,297,0.0,6.0,82,0.00,,---,0.00,VWS V14.01,2013-03-03 07:15:00,
2013-03-03 01:20:00,22.8,18.1,30.10,WNW,285,1.0,6.0,82,0.00,,---,0.00,VWS V14.01,2013-03-03 07:20:00,
2013-03-03 01:25:00,22.8,18.4,30.10,WNW,299,0.0,6.0,83,0.00,,---,0.00,VWS V14.01,2013-03-03 07:25:00,
2013-03-03 01:30:00,22.8,18.1,30.10,WNW,290,2.0,5.0,82,0.00,,---,0.00,VWS V14.01,2013-03-03 07:30:00,
2013-03-03 01:35:00,22.9,18.2,30.10,WNW,293,1.0,5.0,82,0.00,,---,0.00,VWS V14.01,2013-03-03 07:35:00,
2013-03-03 01:40:00,22.9,18.2,30.10,West,281,0.0,5.0,82,0.00,,---,0.00,VWS V14.01,2013-03-03 07:40:00,
2013-03-03 01:45:00,22.8,18.1,30.10,WNW,297,2.0,5.0,82,0.00,,---,0.00,VWS V14.01,2013-03-03 07:45:00,
2013-03-03 01:50:00,22.8,18.4,30.09,WNW,297,2.0,5.0,83,0.00,,---,0.00,VWS V14.01,2013-03-03 07:50:00,
2013-03-03 01:55:00,22.8,18.4,30.10,WNW,290,0.0,5.0,83,0.00,,---,0.00,VWS V14.01,2013-03-03 07:55:00,
2013-03-03 02:00:00,22.8,18.4,30.09,NW,318,1.0,4.0,83,0.00,,---,0.00,VWS V14.01,2013-03-03 08:00:00,
2013-03-03 02:05:00,22.8,18.4,30.09,North,356,1.0,5.0,83,0.00,,---,0.00,VWS V14.01,2013-03-03 08:05:00,
2013-03-03 02:10:00,22.8,18.1,30.09,West,277,3.0,5.0,82,0.00,,---,0.00,VWS V14.01,2013-03-03 08:10:00,
2013-03-03 02:15:00,22.8,18.1,30.09,West,274,1.0,5.0,82,0.00,,---,0.00,VWS V14.01,2013-03-03 08:15:00,
2013-03-03 02:20:00,22.8,18.1,30.09,WNW,298,2.0,6.0,82,0.00,,---,0.00,VWS V14.01,2013-03-03 08:20:00,
2013-03-03 02:25:00,22.7,18.3,30.09,WNW,283,1.0,6.0,83,0.00,,---,0.00,VWS V14.01,2013-03-03 08:25:00,
2013-03-03 02:30:00,22.7,18.3,30.09,WNW,283,1.0,4.0,83,0.00,,---,0.00,VWS V14.01,2013-03-03 08:30:00,
2013-03-03 02:35:00,22.7,18.3,30.09,WNW,300,3.0,4.0,83,0.00,,---,0.00,VWS V14.01,2013-03-03 08:35:00,
2013-03-03 02:40:00,22.6,17.9,30.09,NW,311,2.0,5.0,82,0.00,,---,0.00,VWS V14.01,2013-03-03 08:40:00,
2013-03-03 02:45:00,22.6,17.9,30.09,WNW,293,3.0,7.0,82,0.00,,---,0.00,VWS V14.01,2013-03-03 08:45:00,
2013-03-03 02:50:00,22.6,17.9,30.08,WNW,287,2.0,7.0,82,0.00,,---,0.00,VWS V14.01,2013-03-03 08:50:00,
2013-03-03 02:55:00,22.5,18.1,30.08,West,277,0.0,7.0,83,0.00,,---,0.00,VWS V14.01,2013-03-03 08:55:00,
2013-03-03 03:00:00,22.5,18.1,30.08,WNW,284,2.0,5.0,83,0.00,,---,0.00,VWS V14.01,2013-03-03 09:00:00,
2013-03-03 03:05:00,22.5,18.1,30.08,WSW,243,1.0,5.0,83,0.00,,---,0.00,VWS V14.01,2013-03-03 09:05:00,
2013-03-03 03:10:00,22.5,18.1,30.08,NW,309,1.0,5.0,83,0.00,,---,0.00,VWS V14.01,2013-03-03 09:10:00,
2013-03-03 03:15:00,22.5,18.1,30.08,NW,306,1.0,5.0,83,0.00,,---,0.00,VWS V14.01,2013-03-03 09:15:00,
2013-03-03 03:20:00,22.5,17.9,30.08,West,270,3.0,7.0,82,0.00,,---,0.00,VWS V14.01,2013-03-03 09:20:00,
2013-03-03 03:25:00,22.5,17.9,30.08,NW,315,0.0,7.0,82,0.00,,---,0.00,VWS V14.01,2013-03-03 09:25:00,
2013-03-03 03:30:00,22.5,18.1,30.08,West,281,1.0,2.0,83,0.00,,---,0.00,VWS V14.01,2013-03-03 09:30:00,
2013-03-03 03:35:00,22.5,18.1,30.08,West,263,1.0,3.0,83,0.00,,---,0.00,VWS V14.01,2013-03-03 09:35:00,
2013-03-03 03:40:00,22.5,17.9,30.08,West,271,2.0,7.0,82,0.00,,---,0.00,VWS V14.01,2013-03-03 09:40:00,
2013-03-03 03:45:00,22.5,17.9,30.09,NW,304,1.0,7.0,82,0.00,,---,0.00,VWS V14.01,2013-03-03 09:45:00,
2013-03-03 03:50:00,22.5,17.9,30.09,WNW,287,2.0,7.0,82,0.00,,---,0.00,VWS V14.01,2013-03-03 09:50:00,
2013-03-03 03:55:00,22.6,17.9,30.09,WNW,283,1.0,7.0,82,0.00,,---,0.00,VWS V14.01,2013-03-03 09:55:00,
2013-03-03 04:00:00,22.6,17.7,30.09,WNW,284,2.0,4.0,81,0.00,,---,0.00,VWS V14.01,2013-03-03 10:00:00,
2013-03-03 04:05:00,22.6,17.7,30.09,West,267,3.0,4.0,81,0.00,,---,0.00,VWS V14.01,2013-03-03 10:05:00,
2013-03-03 04:10:00,22.7,17.8,30.09,WSW,250,5.0,6.0,81,0.00,,---,0.00,VWS V14.01,2013-03-03 10:10:00,
2013-03-03 04:15:00,22.7,17.8,30.09,WNW,289,2.0,6.0,81,0.00,,---,0.00,VWS V14.01,2013-03-03 10:15:00,
2013-03-03 04:20:00,22.7,17.8,30.09,WSW,252,1.0,6.0,81,0.00,,---,0.00,VWS V14.01,2013-03-03 10:20:00,
2013-03-03 04:25:00,22.7,17.5,30.09,WNW,297,3.0,6.0,80,0.00,,---,0.00,VWS V14.01,2013-03-03 10:25:00,
2013-03-03 04:30:00,22.7,17.5,30.09,WNW,302,4.0,5.0,80,0.00,,---,0.00,VWS V14.01,2013-03-03 10:30:00,
2013-03-03 04:35:00,22.7,17.5,30.09,WNW,289,1.0,6.0,80,0.00,,---,0.00,VWS V14.01,2013-03-03 10:35:00,
2013-03-03 04:40:00,22.7,17.5,30.09,WNW,287,4.0,6.0,80,0.00,,---,0.00,VWS V14.01,2013-03-03 10:40:00,
2013-03-03 04:45:00,22.7,17.2,30.09,WNW,289,2.0,6.0,79,0.00,,---,0.00,VWS V14.01,2013-03-03 10:45:00,
2013-03-03 04:50:00,22.7,17.2,30.09,WNW,283,2.0,6.0,79,0.00,,---,0.00,VWS V14.01,2013-03-03 10:50:00,
2013-03-03 04:55:00,22.8,17.0,30.09,WNW,302,1.0,6.0,78,0.00,,---,0.00,VWS V14.01,2013-03-03 10:55:00,
2013-03-03 05:00:00,22.7,16.6,30.09,WNW,291,3.0,5.0,77,0.00,,---,0.00,VWS V14.01,2013-03-03 11:00:00,
2013-03-03 05:05:00,22.7,16.6,30.09,West,267,3.0,6.0,77,0.00,,---,0.00,VWS V14.01,2013-03-03 11:05:00,
2013-03-03 05:10:00,22.7,16.6,30.09,WNW,288,3.0,6.0,77,0.00,,---,0.00,VWS V14.01,2013-03-03 11:10:00,
2013-03-03 05:15:00,22.7,16.6,30.08,NW,312,2.0,6.0,77,0.00,,---,0.00,VWS V14.01,2013-03-03 11:15:00,
2013-03-03 05:20:00,22.7,16.6,30.08,West,267,1.0,6.0,77,0.00,,---,0.00,VWS V14.01,2013-03-03 11:20:00,
2013-03-03 05:25:00,22.7,16.6,30.09,WNW,291,2.0,6.0,77,0.00,,---,0.00,VWS V14.01,2013-03-03 11:25:00,
2013-03-03 05:30:00,22.6,16.8,30.09,WNW,297,4.0,4.0,78,0.00,,---,0.00,VWS V14.01,2013-03-03 11:30:00,
2013-03-03 05:35:00,22.6,16.8,30.09,NW,308,2.0,5.0,78,0.00,,---,0.00,VWS V14.01,2013-03-03 11:35:00,
2013-03-03 05:40:00,22.5,17.0,30.09,West,270,5.0,5.0,79,0.00,,---,0.00,VWS V14.01,2013-03-03 11:40:00,
2013-03-03 05:45:00,22.4,16.9,30.09,NNW,330,2.0,9.0,79,0.00,,---,0.00,VWS V14.01,2013-03-03 11:45:00,
2013-03-03 05:50:00,22.4,17.2,30.09,West,274,1.0,9.0,80,0.00,,---,0.00,VWS V14.01,2013-03-03 11:50:00,
2013-03-03 05:55:00,22.3,17.1,30.09,WNW,288,2.0,9.0,80,0.00,,---,0.00,VWS V14.01,2013-03-03 11:55:00,
2013-03-03 06:00:00,22.3,17.4,30.09,West,276,5.0,5.0,81,0.00,,---,0.00,VWS V14.01,2013-03-03 12:00:00,
2013-03-03 06:05:00,22.2,17.3,30.09,NW,309,2.0,6.0,81,0.00,,---,0.00,VWS V14.01,2013-03-03 12:05:00,
2013-03-03 06:10:00,22.1,17.2,30.09,West,273,3.0,9.0,81,0.00,,---,0.00,VWS V14.01,2013-03-03 12:10:00,
2013-03-03 06:15:00,22.1,17.5,30.09,WNW,301,1.0,9.0,82,0.00,,---,0.00,VWS V14.01,2013-03-03 12:15:00,
2013-03-03 06:20:00,22.1,17.7,30.09,WNW,285,3.0,9.0,83,0.00,,---,0.00,VWS V14.01,2013-03-03 12:20:00,
2013-03-03 06:25:00,22.0,17.4,30.09,West,281,2.0,9.0,82,0.00,,---,0.00,VWS V14.01,2013-03-03 12:25:00,
2013-03-03 06:30:00,22.0,17.6,30.09,West,274,1.0,5.0,83,0.00,,---,0.00,VWS V14.01,2013-03-03 12:30:00,
2013-03-03 06:35:00,22.0,17.6,30.09,NNW,333,1.0,6.0,83,0.00,,---,0.00,VWS V14.01,2013-03-03 12:35:00,
2013-03-03 06:40:00,22.0,17.6,30.09,NW,319,0.0,6.0,83,0.00,,---,0.00,VWS V14.01,2013-03-03 12:40:00,
2013-03-03 06:45:00,22.0,17.6,30.09,West,277,2.0,6.0,83,0.00,,---,0.00,VWS V14.01,2013-03-03 12:45:00,
2013-03-03 06:50:00,22.0,17.6,30.09,NW,305,3.0,6.0,83,0.00,,---,0.00,VWS V14.01,2013-03-03 12:50:00,
2013-03-03 06:55:00,22.0,17.9,30.09,WNW,291,1.0,6.0,84,0.00,,---,0.00,VWS V14.01,2013-03-03 12:55:00,
2013-03-03 07:00:00,22.1,17.7,30.10,WNW,287,3.0,5.0,83,0.00,,---,0.00,VWS V14.01,2013-03-03 13:00:00,
2013-03-03 07:05:00,22.2,17.8,30.10,West,280,2.0,5.0,83,0.00,,---,0.00,VWS V14.01,2013-03-03 13:05:00,
2013-03-03 07:10:00,22.2,17.8,30.10,WNW,298,1.0,5.0,83,0.00,,---,0.00,VWS V14.01,2013-03-03 13:10:00,
2013-03-03 07:15:00,22.3,18.2,30.10,WNW,290,1.0,5.0,84,0.00,,---,0.00,VWS V14.01,2013-03-03 13:15:00,
2013-03-03 07:20:00,22.4,18.3,30.10,SSW,210,1.0,6.0,84,0.00,,---,0.00,VWS V14.01,2013-03-03 13:20:00,
2013-03-03 07:25:00,22.5,18.1,30.10,NNW,330,2.0,6.0,83,0.00,,---,0.00,VWS V14.01,2013-03-03 13:25:00,
2013-03-03 07:30:00,22.5,18.1,30.10,NW,316,0.0,2.0,83,0.00,,---,0.00,VWS V14.01,2013-03-03 13:30:00,
2013-03-03 07:35:00,22.6,18.2,30.10,NW,310,2.0,4.0,83,0.00,,---,0.00,VWS V14.01,2013-03-03 13:35:00,
2013-03-03 07:40:00,22.8,18.1,30.10,WNW,287,2.0,4.0,82,0.00,,---,0.00,VWS V14.01,2013-03-03 13:40:00,
2013-03-03 07:45:00,22.9,18.2,30.10,West,267,3.0,5.0,82,0.00,,---,0.00,VWS V14.01,2013-03-03 13:45:00,
2013-03-03 07:50:00,22.9,18.0,30.10,NNW,342,2.0,5.0,81,0.00,,---,0.00,VWS V14.01,2013-03-03 13:50:00,
2013-03-03 07:55:00,22.9,17.7,30.10,NNE,30,2.0,5.0,80,0.00,,---,0.00,VWS V14.01,2013-03-03 13:55:00,
2013-03-03 08:00:00,23.0,17.8,30.10,WNW,294,4.0,8.0,80,0.00,,---,0.00,VWS V14.01,2013-03-03 14:00:00,
2013-03-03 08:05:00,23.1,18.1,30.10,NNE,15,2.0,8.0,81,0.00,,---,0.00,VWS V14.01,2013-03-03 14:05:00,
2013-03-03 08:10:00,23.1,17.9,30.10,WNW,300,1.0,8.0,80,0.00,,---,0.00,VWS V14.01,2013-03-03 14:10:00,
2013-03-03 08:15:00,23.2,18.0,30.10,NW,315,3.0,8.0,80,0.00,,---,0.00,VWS V14.01,2013-03-03 14:15:00,
2013-03-03 08:20:00,23.1,17.6,30.10,North,349,1.0,8.0,79,0.00,,---,0.00,VWS V14.01,2013-03-03 14:20:00,
2013-03-03 08:25:00,23.2,18.0,30.10,North,352,3.0,8.0,80,0.00,,---,0.00,VWS V14.01,2013-03-03 14:25:00,
2013-03-03 08:30:00,23.1,17.6,30.10,NW,316,2.0,6.0,79,0.00,,---,0.00,VWS V14.01,2013-03-03 14:30:00,
2013-03-03 08:35:00,22.9,17.1,30.10,NW,325,4.0,6.0,78,0.00,,---,0.00,VWS V14.01,2013-03-03 14:35:00,
2013-03-03 08:40:00,22.8,17.0,30.10,West,281,2.0,7.0,78,0.00,,---,0.00,VWS V14.01,2013-03-03 14:40:00,
2013-03-03 08:45:00,22.8,16.7,30.10,NW,320,5.0,8.0,77,0.00,,---,0.00,VWS V14.01,2013-03-03 14:45:00,
2013-03-03 08:50:00,22.7,16.3,30.10,WNW,290,5.0,9.0,76,0.00,,---,0.00,VWS V14.01,2013-03-03 14:50:00,
2013-03-03 08:55:00,22.8,16.4,30.10,NW,318,1.0,9.0,76,0.00,,---,0.00,VWS V14.01,2013-03-03 14:55:00,
2013-03-03 09:00:00,22.8,16.4,30.10,NW,314,4.0,4.0,76,0.00,,---,0.00,VWS V14.01,2013-03-03 15:00:00,
2013-03-03 09:05:00,22.7,16.3,30.10,West,262,2.0,5.0,76,0.00,,---,0.00,VWS V14.01,2013-03-03 15:05:00,
2013-03-03 09:10:00,22.8,16.7,30.10,WNW,293,2.0,6.0,77,0.00,,---,0.00,VWS V14.01,2013-03-03 15:10:00,
2013-03-03 09:15:00,22.9,16.5,30.10,NNW,330,1.0,6.0,76,0.00,,---,0.00,VWS V14.01,2013-03-03 15:15:00,
2013-03-03 09:20:00,22.8,16.7,30.10,WNW,284,4.0,7.0,77,0.00,,---,0.00,VWS V14.01,2013-03-03 15:20:00,
2013-03-03 09:25:00,22.9,16.5,30.10,NNW,341,2.0,7.0,76,0.00,,---,0.00,VWS V14.01,2013-03-03 15:25:00,
2013-03-03 09:30:00,23.0,16.6,30.10,North,350,3.0,3.0,76,0.00,,---,0.00,VWS V14.01,2013-03-03 15:30:00,
2013-03-03 09:35:00,23.3,16.6,30.10,SSW,201,1.0,4.0,75,0.00,,---,0.00,VWS V14.01,2013-03-03 15:35:00,
2013-03-03 09:40:00,23.4,16.7,30.10,West,271,1.0,6.0,75,0.00,,---,0.00,VWS V14.01,2013-03-03 15:40:00,
2013-03-03 09:45:00,23.4,16.0,30.10,West,276,3.0,8.0,73,0.00,,---,0.00,VWS V14.01,2013-03-03 15:45:00,
2013-03-03 09:50:00,23.4,16.4,30.10,WNW,297,2.0,8.0,74,0.00,,---,0.00,VWS V14.01,2013-03-03 15:50:00,
2013-03-03 09:55:00,23.4,16.0,30.10,NW,321,1.0,8.0,73,0.00,,---,0.00,VWS V14.01,2013-03-03 15:55:00,
2013-03-03 10:00:00,23.6,16.5,30.10,West,281,2.0,4.0,74,0.00,,---,0.00,VWS V14.01,2013-03-03 16:00:00,
2013-03-03 10:05:00,23.6,16.2,30.10,West,278,1.0,6.0,73,0.00,,---,0.00,VWS V14.01,2013-03-03 16:05:00,
2013-03-03 10:09:00,23.6,16.2,30.10,West,278,2.0,6.0,73,0.00,,---,0.00,VWS V14.01,2013-03-03 16:09:00,
2013-03-03 10:14:00,23.6,16.5,30.10,WNW,291,2.0,6.0,74,0.00,,---,0.00,VWS V14.01,2013-03-03 16:14:00,
2013-03-03 10:20:00,23.7,16.3,30.10,WNW,283,3.0,8.0,73,0.00,,---,0.00,VWS V14.01,2013-03-03 16:20:00,
2013-03-03 10:25:00,23.6,16.2,30.10,WNW,291,5.0,8.0,73,0.00,,---,0.00,VWS V14.01,2013-03-03 16:25:00,
2013-03-03 10:30:00,23.5,16.1,30.10,WNW,290,6.0,8.0,73,0.00,,---,0.00,VWS V14.01,2013-03-03 16:30:00,
2013-03-03 10:35:00,23.5,15.8,30.10,West,281,1.0,10.0,72,0.00,,---,0.00,VWS V14.01,2013-03-03 16:35:00,
2013-03-03 10:40:00,23.8,16.1,30.10,NW,315,1.0,10.0,72,0.00,,---,0.00,VWS V14.01,2013-03-03 16:40:00,
2013-03-03 10:44:00,24.0,16.3,30.10,NW,320,4.0,10.0,72,0.00,,---,0.00,VWS V14.01,2013-03-03 16:44:00,
2013-03-03 10:49:00,24.2,16.5,30.10,West,276,6.0,10.0,72,0.00,,---,0.00,VWS V14.01,2013-03-03 16:49:00,
2013-03-03 10:54:00,24.3,16.3,30.10,WNW,284,3.0,10.0,71,0.00,,---,0.00,VWS V14.01,2013-03-03 16:54:00,
2013-03-03 10:59:00,24.5,16.5,30.10,West,281,2.0,7.0,71,0.00,,---,0.00,VWS V14.01,2013-03-03 16:59:00,
2013-03-03 11:00:00,25.1,16.0,30.08,NNE,15,2.0,9.0,68,0.00,,---,0.00,VWS V14.01,2013-03-03 17:00:00,
2013-03-03 11:04:00,24.6,17.2,30.09,North,11,4.0,7.0,73,0.00,,---,0.00,VWS V14.01,2013-03-03 17:04:00,
2013-03-03 11:09:00,24.7,17.0,30.09,West,276,7.0,7.0,72,0.00,,---,0.00,VWS V14.01,2013-03-03 17:09:00,
2013-03-03 11:14:00,24.2,16.5,30.09,WNW,297,4.0,9.0,72,0.00,,---,0.00,VWS V14.01,2013-03-03 17:14:00,
2013-03-03 11:19:00,24.2,16.8,30.10,West,274,4.0,9.0,73,0.00,,---,0.00,VWS V14.01,2013-03-03 17:19:00,
2013-03-03 11:24:00,24.2,16.8,30.09,West,277,7.0,9.0,73,0.00,,---,0.00,VWS V14.01,2013-03-03 17:24:00,
2013-03-03 11:29:00,24.2,16.8,30.09,WSW,257,6.0,7.0,73,0.00,,---,0.00,VWS V14.01,2013-03-03 17:29:00,
2013-03-03 11:30:00,26.3,16.5,30.07,North,8,3.0,8.0,66,0.00,,---,0.00,VWS V14.01,2013-03-03 17:30:00,
2013-03-03 11:34:00,24.2,16.5,30.09,SSW,210,2.0,7.0,72,0.00,,---,0.00,VWS V14.01,2013-03-03 17:34:00,
2013-03-03 11:39:00,24.7,17.0,30.09,West,278,3.0,7.0,72,0.00,,---,0.00,VWS V14.01,2013-03-03 17:39:00,
2013-03-03 11:44:00,24.7,16.3,30.09,West,262,4.0,9.0,70,0.00,,---,0.00,VWS V14.01,2013-03-03 17:44:00,
2013-03-03 11:49:00,24.6,16.2,30.08,West,281,4.0,9.0,70,0.00,,---,0.00,VWS V14.01,2013-03-03 17:49:00,
2013-03-03 11:54:00,24.8,16.8,30.08,NW,320,3.0,9.0,71,0.00,,---,0.00,VWS V14.01,2013-03-03 17:54:00,
2013-03-03 11:59:00,25.2,16.1,30.08,WSW,248,4.0,4.0,68,0.00,,---,0.00,VWS V14.01,2013-03-03 17:59:00,
2013-03-03 12:00:00,27.9,17.7,30.06,NW,317,3.0,11.0,65,0.00,,---,0.00,VWS V14.01,2013-03-03 18:00:00,
2013-03-03 12:04:00,25.1,16.0,30.08,WNW,294,5.0,7.0,68,0.00,,---,0.00,VWS V14.01,2013-03-03 18:04:00,
2013-03-03 12:09:00,25.3,16.6,30.08,WNW,283,6.0,8.0,69,0.00,,---,0.00,VWS V14.01,2013-03-03 18:09:00,
2013-03-03 12:14:00,25.7,17.0,30.07,WNW,283,5.0,8.0,69,0.00,,---,0.00,VWS V14.01,2013-03-03 18:14:00,
2013-03-03 12:19:00,26.1,16.7,30.07,North,360,2.0,8.0,67,0.00,,---,0.00,VWS V14.01,2013-03-03 18:19:00,
2013-03-03 12:24:00,26.4,16.6,30.07,West,278,8.0,8.0,66,0.00,,---,0.00,VWS V14.01,2013-03-03 18:24:00,
2013-03-03 12:29:00,26.3,16.5,30.07,NNW,330,2.0,5.0,66,0.00,,---,0.00,VWS V14.01,2013-03-03 18:29:00,
2013-03-03 12:30:00,27.8,16.1,30.06,WSW,240,2.0,8.0,61,0.00,,---,0.00,VWS V14.01,2013-03-03 18:30:00,
2013-03-03 12:34:00,26.6,17.5,30.07,WNW,285,3.0,10.0,68,0.00,,---,0.00,VWS V14.01,2013-03-03 18:34:00,
2013-03-03 12:39:00,27.1,16.9,30.07,NW,307,7.0,10.0,65,0.00,,---,0.00,VWS V14.01,2013-03-03 18:39:00,
2013-03-03 12:44:00,27.0,16.5,30.07,NW,307,5.0,10.0,64,0.00,,---,0.00,VWS V14.01,2013-03-03 18:44:00,
2013-03-03 12:49:00,26.6,16.4,30.06,WNW,287,6.0,10.0,65,0.00,,---,0.00,VWS V14.01,2013-03-03 18:49:00,
2013-03-03 12:54:00,27.3,17.5,30.06,NW,309,1.0,11.0,66,0.00,,---,0.00,VWS V14.01,2013-03-03 18:54:00,
2013-03-03 12:59:00,27.7,16.4,30.06,West,274,4.0,7.0,62,0.00,,---,0.00,VWS V14.01,2013-03-03 18:59:00,
2013-03-03 13:00:00,30.1,17.5,30.05,WNW,294,6.0,10.0,59,0.00,,---,0.00,VWS V14.01,2013-03-03 19:00:00,
2013-03-03 13:04:00,26.9,15.6,30.06,West,266,3.0,7.0,62,0.00,,---,0.00,VWS V14.01,2013-03-03 19:04:00,
2013-03-03 13:09:00,27.6,17.0,30.06,West,279,4.0,7.0,64,0.00,,---,0.00,VWS V14.01,2013-03-03 19:09:00,
2013-03-03 13:14:00,27.9,16.6,30.06,West,280,5.0,8.0,62,0.00,,---,0.00,VWS V14.01,2013-03-03 19:14:00,
2013-03-03 13:19:00,28.2,16.9,30.06,WNW,293,5.0,8.0,62,0.00,,---,0.00,VWS V14.01,2013-03-03 19:19:00,
2013-03-03 13:24:00,27.8,16.1,30.06,WNW,284,5.0,8.0,61,0.00,,---,0.00,VWS V14.01,2013-03-03 19:24:00,
2013-03-03 13:29:00,27.8,16.9,30.06,NNE,12,5.0,8.0,63,0.00,,---,0.00,VWS V14.01,2013-03-03 19:29:00,
2013-03-03 13:30:00,29.4,16.1,30.05,West,278,7.0,13.0,57,0.00,,---,0.00,VWS V14.01,2013-03-03 19:30:00,
2013-03-03 13:34:00,28.8,17.1,30.06,WSW,253,4.0,10.0,61,0.00,,---,0.00,VWS V14.01,2013-03-03 19:34:00,
2013-03-03 13:39:00,29.2,17.1,30.06,NW,316,5.0,10.0,60,0.00,,---,0.00,VWS V14.01,2013-03-03 19:39:00,
2013-03-03 13:44:00,29.2,16.7,30.05,WNW,291,1.0,10.0,59,0.00,,---,0.00,VWS V14.01,2013-03-03 19:44:00,
2013-03-03 13:49:00,29.3,17.1,30.05,SW,235,0.0,10.0,60,0.00,,---,0.00,VWS V14.01,2013-03-03 19:49:00,
2013-03-03 13:54:00,29.8,17.6,30.05,NW,311,3.0,10.0,60,0.00,,---,0.00,VWS V14.01,2013-03-03 19:54:00,
2013-03-03 13:59:00,30.0,16.6,30.05,WNW,283,4.0,6.0,57,0.00,,---,0.00,VWS V14.01,2013-03-03 19:59:00,
2013-03-03 14:00:00,29.0,16.1,30.05,WSW,246,3.0,10.0,58,0.00,,---,0.00,VWS V14.01,2013-03-03 20:00:00,
2013-03-03 14:04:00,29.6,16.6,30.05,WNW,291,4.0,9.0,58,0.00,,---,0.00,VWS V14.01,2013-03-03 20:04:00,
2013-03-03 14:09:00,29.6,17.0,30.05,West,276,3.0,10.0,59,0.00,,---,0.00,VWS V14.01,2013-03-03 20:09:00,
2013-03-03 14:14:00,29.4,16.9,30.05,WNW,288,4.0,13.0,59,0.00,,---,0.00,VWS V14.01,2013-03-03 20:14:00,
2013-03-03 14:19:00,29.3,17.1,30.05,NW,308,1.0,13.0,60,0.00,,---,0.00,VWS V14.01,2013-03-03 20:19:00,
2013-03-03 14:24:00,29.4,16.5,30.05,NW,322,4.0,13.0,58,0.00,,---,0.00,VWS V14.01,2013-03-03 20:24:00,
2013-03-03 14:29:00,29.3,16.4,30.05,West,273,7.0,8.0,58,0.00,,---,0.00,VWS V14.01,2013-03-03 20:29:00,
2013-03-03 14:30:00,29.4,15.7,30.05,West,276,3.0,14.0,56,0.00,,---,0.00,VWS V14.01,2013-03-03 20:30:00,
2013-03-03 14:34:00,28.7,15.8,30.05,WNW,291,3.0,10.0,58,0.00,,---,0.00,VWS V14.01,2013-03-03 20:34:00,
2013-03-03 14:39:00,28.8,15.9,30.05,NW,304,2.0,10.0,58,0.00,,---,0.00,VWS V14.01,2013-03-03 20:39:00,
2013-03-03 14:44:00,29.1,16.2,30.05,WNW,291,3.0,10.0,58,0.00,,---,0.00,VWS V14.01,2013-03-03 20:44:00,
2013-03-03 14:49:00,29.3,16.0,30.05,NW,309,4.0,10.0,57,0.00,,---,0.00,VWS V14.01,2013-03-03 20:49:00,
2013-03-03 14:54:00,29.5,15.8,30.05,West,266,6.0,10.0,56,0.00,,---,0.00,VWS V14.01,2013-03-03 20:54:00,
2013-03-03 14:59:00,28.9,16.0,30.05,NW,305,5.0,9.0,58,0.00,,---,0.00,VWS V14.01,2013-03-03 20:59:00,
2013-03-03 15:00:00,29.5,15.3,30.06,NW,314,2.0,11.0,55,0.00,,---,0.00,VWS V14.01,2013-03-03 21:00:00,
2013-03-03 15:04:00,29.3,16.4,30.05,WNW,287,5.0,9.0,58,0.00,,---,0.00,VWS V14.01,2013-03-03 21:04:00,
2013-03-03 15:09:00,29.3,15.6,30.05,WNW,293,3.0,9.0,56,0.00,,---,0.00,VWS V14.01,2013-03-03 21:09:00,
2013-03-03 15:14:00,29.6,16.6,30.05,NE,43,2.0,9.0,58,0.00,,---,0.00,VWS V14.01,2013-03-03 21:14:00,
2013-03-03 15:19:00,29.2,15.5,30.05,NW,309,7.0,14.0,56,0.00,,---,0.00,VWS V14.01,2013-03-03 21:19:00,
2013-03-03 15:24:00,29.2,15.5,30.05,West,266,5.0,14.0,56,0.00,,---,0.00,VWS V14.01,2013-03-03 21:24:00,
2013-03-03 15:29:00,29.6,15.8,30.05,WNW,296,9.0,10.0,56,0.00,,---,0.00,VWS V14.01,2013-03-03 21:29:00,
2013-03-03 15:30:00,28.8,15.1,30.06,WSW,257,4.0,9.0,56,0.00,,---,0.00,VWS V14.01,2013-03-03 21:30:00,
2013-03-03 15:34:00,29.6,15.8,30.05,WSW,243,7.0,11.0,56,0.00,,---,0.00,VWS V14.01,2013-03-03 21:34:00,
2013-03-03 15:39:00,29.5,16.2,30.05,WNW,293,2.0,11.0,57,0.00,,---,0.00,VWS V14.01,2013-03-03 21:39:00,
2013-03-03 15:44:00,29.9,16.5,30.05,WSW,250,4.0,11.0,57,0.00,,---,0.00,VWS V14.01,2013-03-03 21:44:00,
2013-03-03 15:49:00,30.0,15.8,30.05,WNW,303,2.0,11.0,55,0.00,,---,0.00,VWS V14.01,2013-03-03 21:49:00,
2013-03-03 15:54:00,29.8,16.0,30.06,NNW,333,0.0,11.0,56,0.00,,---,0.00,VWS V14.01,2013-03-03 21:54:00,
2013-03-03 15:59:00,29.5,15.3,30.06,WNW,297,6.0,6.0,55,0.00,,---,0.00,VWS V14.01,2013-03-03 21:59:00,
2013-03-03 16:00:00,29.0,14.4,30.07,WNW,283,4.0,9.0,54,0.00,,---,0.00,VWS V14.01,2013-03-03 22:00:00,
2013-03-03 16:04:00,29.5,15.8,30.06,NW,320,0.0,6.0,56,0.00,,---,0.00,VWS V14.01,2013-03-03 22:04:00,
2013-03-03 16:09:00,29.7,15.9,30.06,WNW,285,5.0,8.0,56,0.00,,---,0.00,VWS V14.01,2013-03-03 22:09:00,
2013-03-03 16:14:00,29.7,15.5,30.06,NNE,20,2.0,8.0,55,0.00,,---,0.00,VWS V14.01,2013-03-03 22:14:00,
2013-03-03 16:19:00,29.2,15.1,30.06,WNW,300,4.0,9.0,55,0.00,,---,0.00,VWS V14.01,2013-03-03 22:19:00,
2013-03-03 16:24:00,28.8,15.1,30.06,WNW,294,4.0,9.0,56,0.00,,---,0.00,VWS V14.01,2013-03-03 22:24:00,
2013-03-03 16:29:00,28.9,15.2,30.06,West,280,5.0,7.0,56,0.00,,---,0.00,VWS V14.01,2013-03-03 22:29:00,
2013-03-03 16:30:00,27.7,14.5,30.07,WNW,302,3.0,7.0,57,0.00,,---,0.00,VWS V14.01,2013-03-03 22:30:00,
2013-03-03 16:34:00,28.9,15.2,30.06,WNW,291,3.0,9.0,56,0.00,,---,0.00,VWS V14.01,2013-03-03 22:34:00,
2013-03-03 16:39:00,28.9,15.2,30.06,NNW,327,2.0,9.0,56,0.00,,---,0.00,VWS V14.01,2013-03-03 22:39:00,
2013-03-03 16:44:00,28.9,15.2,30.07,WNW,283,2.0,9.0,56,0.00,,---,0.00,VWS V14.01,2013-03-03 22:44:00,
2013-03-03 16:49:00,29.0,14.9,30.07,NW,318,1.0,9.0,55,0.00,,---,0.00,VWS V14.01,2013-03-03 22:49:00,
2013-03-03 16:54:00,29.0,14.4,30.07,West,270,8.0,9.0,54,0.00,,---,0.00,VWS V14.01,2013-03-03 22:54:00,
2013-03-03 16:59:00,28.9,14.4,30.07,WNW,297,2.0,5.0,54,0.00,,---,0.00,VWS V14.01,2013-03-03 22:59:00,
2013-03-03 17:00:00,26.4,14.4,30.08,NW,318,0.0,5.0,60,0.00,,---,0.00,VWS V14.01,2013-03-03 23:00:00,
2013-03-03 17:04:00,28.8,14.7,30.07,West,278,5.0,7.0,55,0.00,,---,0.00,VWS V14.01,2013-03-03 23:04:00,
2013-03-03 17:09:00,28.5,14.8,30.07,WNW,283,3.0,7.0,56,0.00,,---,0.00,VWS V14.01,2013-03-03 23:09:00,
2013-03-03 17:14:00,28.2,14.9,30.07,WNW,291,4.0,7.0,57,0.00,,---,0.00,VWS V14.01,2013-03-03 23:14:00,
2013-03-03 17:19:00,28.0,14.3,30.07,NW,316,2.0,7.0,56,0.00,,---,0.00,VWS V14.01,2013-03-03 23:19:00,
2013-03-03 17:24:00,27.8,14.2,30.07,WNW,287,1.0,7.0,56,0.00,,---,0.00,VWS V14.01,2013-03-03 23:24:00,
2013-03-03 17:29:00,27.7,14.5,30.08,WNW,297,3.0,3.0,57,0.00,,---,0.00,VWS V14.01,2013-03-03 23:29:00,
2013-03-03 17:30:00,23.4,13.4,30.08,NW,318,0.0,0.0,65,0.00,,---,0.00,VWS V14.01,2013-03-03 23:30:00,
2013-03-03 17:34:00,27.4,14.6,30.07,WNW,291,2.0,5.0,58,0.00,,---,0.00,VWS V14.01,2013-03-03 23:34:00,
2013-03-03 17:39:00,27.1,14.3,30.08,WNW,285,1.0,5.0,58,0.00,,---,0.00,VWS V14.01,2013-03-03 23:39:00,
2013-03-03 17:44:00,26.9,14.5,30.08,WNW,283,0.0,5.0,59,0.00,,---,0.00,VWS V14.01,2013-03-03 23:44:00,
2013-03-03 17:49:00,26.7,14.7,30.08,WNW,287,1.0,5.0,60,0.00,,---,0.00,VWS V14.01,2013-03-03 23:49:00,
2013-03-03 17:54:00,26.6,14.6,30.08,West,277,0.0,5.0,60,0.00,,---,0.00,VWS V14.01,2013-03-03 23:54:00,
2013-03-03 17:59:00,26.3,14.3,30.08,NW,317,0.0,0.0,60,0.00,,---,0.00,VWS V14.01,2013-03-03 23:59:00,
2013-03-03 18:00:00,21.9,14.9,30.09,NW,317,0.0,0.0,74,0.00,,---,0.00,VWS V14.01,2013-03-04 00:00:00,
2013-03-03 18:04:00,25.8,14.6,30.08,NW,318,0.0,0.0,62,0.00,,---,0.00,VWS V14.01,2013-03-04 00:04:00,
2013-03-03 18:09:00,25.3,14.5,30.08,NW,318,0.0,0.0,63,0.00,,---,0.00,VWS V14.01,2013-03-04 00:09:00,
2013-03-03 18:14:00,24.9,15.5,30.08,NW,317,0.0,0.0,67,0.00,,---,0.00,VWS V14.01,2013-03-04 00:14:00,
2013-03-03 18:19:00,24.4,14.7,30.08,NW,317,0.0,0.0,66,0.00,,---,0.00,VWS V14.01,2013-03-04 00:19:00,
2013-03-03 18:24:00,23.9,14.2,30.08,NW,318,0.0,0.0,66,0.00,,---,0.00,VWS V14.01,2013-03-04 00:24:00,
2013-03-03 18:29:00,23.2,13.5,30.09,NW,317,0.0,0.0,66,0.00,,---,0.00,VWS V14.01,2013-03-04 00:29:00,
2013-03-03 18:30:00,20.8,15.3,30.09,NW,318,0.0,0.0,79,0.00,,---,0.00,VWS V14.01,2013-03-04 00:30:00,
2013-03-03 18:34:00,22.5,12.9,30.08,NW,317,0.0,0.0,66,0.00,,---,0.00,VWS V14.01,2013-03-04 00:34:00,
2013-03-03 18:39:00,22.0,13.4,30.09,NW,318,0.0,0.0,69,0.00,,---,0.00,VWS V14.01,2013-03-04 00:39:00,
2013-03-03 18:44:00,22.4,14.4,30.09,NW,318,0.0,0.0,71,0.00,,---,0.00,VWS V14.01,2013-03-04 00:44:00,
2013-03-03 18:49:00,22.6,14.9,30.09,NW,318,0.0,0.0,72,0.00,,---,0.00,VWS V14.01,2013-03-04 00:49:00,
2013-03-03 18:54:00,22.3,14.7,30.09,NW,318,0.0,0.0,72,0.00,,---,0.00,VWS V14.01,2013-03-04 00:54:00,
2013-03-03 18:59:00,21.9,14.9,30.09,NW,318,0.0,0.0,74,0.00,,---,0.00,VWS V14.01,2013-03-04 00:59:00,
2013-03-03 19:00:00,20.1,15.2,30.10,WSW,252,0.0,0.0,81,0.00,,---,0.00,VWS V14.01,2013-03-04 01:00:00,
2013-03-03 19:04:00,21.7,15.3,30.09,NW,318,0.0,0.0,76,0.00,,---,0.00,VWS V14.01,2013-03-04 01:04:00,
2013-03-03 19:09:00,21.0,14.6,30.09,NW,318,0.0,0.0,76,0.00,,---,0.00,VWS V14.01,2013-03-04 01:09:00,
2013-03-03 19:14:00,20.3,14.3,30.09,NW,317,0.0,0.0,77,0.00,,---,0.00,VWS V14.01,2013-03-04 01:14:00,
2013-03-03 19:19:00,20.4,14.9,30.09,NW,317,0.0,0.0,79,0.00,,---,0.00,VWS V14.01,2013-03-04 01:19:00,
2013-03-03 19:24:00,20.6,15.1,30.09,NW,318,0.0,0.0,79,0.00,,---,0.00,VWS V14.01,2013-03-04 01:24:00,
2013-03-03 19:29:00,20.8,15.3,30.09,NW,318,0.0,0.0,79,0.00,,---,0.00,VWS V14.01,2013-03-04 01:29:00,
2013-03-03 19:30:00,17.5,13.8,30.10,WSW,251,0.0,0.0,85,0.00,,---,0.00,VWS V14.01,2013-03-04 01:30:00,
2013-03-03 19:34:00,21.3,16.1,30.10,NW,318,0.0,0.0,80,0.00,,---,0.00,VWS V14.01,2013-03-04 01:34:00,
2013-03-03 19:39:00,21.2,15.7,30.10,NW,318,0.0,0.0,79,0.00,,---,0.00,VWS V14.01,2013-03-04 01:39:00,
2013-03-03 19:44:00,21.0,15.8,30.10,WSW,252,0.0,0.0,80,0.00,,---,0.00,VWS V14.01,2013-03-04 01:44:00,
2013-03-03 19:49:00,20.8,15.6,30.10,WSW,252,0.0,0.0,80,0.00,,---,0.00,VWS V14.01,2013-03-04 01:49:00,
2013-03-03 19:54:00,20.3,15.1,30.10,WSW,252,0.0,0.0,80,0.00,,---,0.00,VWS V14.01,2013-03-04 01:54:00,
2013-03-03 19:59:00,20.0,15.1,30.10,WSW,252,0.0,0.0,81,0.00,,---,0.00,VWS V14.01,2013-03-04 01:59:00,
2013-03-03 20:00:00,18.0,14.8,30.10,WSW,252,0.0,0.0,87,0.00,,---,0.00,VWS V14.01,2013-03-04 02:00:00,
2013-03-03 20:04:00,19.5,14.6,30.10,WSW,252,0.0,0.0,81,0.00,,---,0.00,VWS V14.01,2013-03-04 02:04:00,
2013-03-03 20:09:00,19.2,14.9,30.10,WSW,252,0.0,0.0,83,0.00,,---,0.00,VWS V14.01,2013-03-04 02:09:00,
2013-03-03 20:14:00,18.8,14.5,30.10,WSW,252,0.0,0.0,83,0.00,,---,0.00,VWS V14.01,2013-03-04 02:14:00,
2013-03-03 20:19:00,18.3,14.0,30.10,WSW,252,0.0,0.0,83,0.00,,---,0.00,VWS V14.01,2013-03-04 02:19:00,
2013-03-03 20:24:00,17.6,13.1,30.10,WSW,252,0.0,0.0,82,0.00,,---,0.00,VWS V14.01,2013-03-04 02:24:00,
2013-03-03 20:29:00,17.5,13.8,30.10,WSW,252,0.0,0.0,85,0.00,,---,0.00,VWS V14.01,2013-03-04 02:29:00,
2013-03-03 20:30:00,17.9,14.9,30.10,WSW,252,0.0,0.0,88,0.00,,---,0.00,VWS V14.01,2013-03-04 02:30:00,
2013-03-03 20:34:00,17.6,14.4,30.10,WSW,252,0.0,0.0,87,0.00,,---,0.00,VWS V14.01,2013-03-04 02:34:00,
2013-03-03 20:39:00,17.9,14.9,30.10,WSW,252,0.0,0.0,88,0.00,,---,0.00,VWS V14.01,2013-03-04 02:39:00,
2013-03-03 20:44:00,18.1,15.1,30.10,WSW,252,0.0,0.0,88,0.00,,---,0.00,VWS V14.01,2013-03-04 02:44:00,
2013-03-03 20:49:00,18.1,14.9,30.10,WSW,252,0.0,0.0,87,0.00,,---,0.00,VWS V14.01,2013-03-04 02:49:00,
2013-03-03 20:54:00,18.1,14.9,30.10,WSW,252,0.0,0.0,87,0.00,,---,0.00,VWS V14.01,2013-03-04 02:54:00,
2013-03-03 20:59:00,18.0,14.8,30.10,WSW,252,0.0,0.0,87,0.00,,---,0.00,VWS V14.01,2013-03-04 02:59:00,
2013-03-03 21:00:00,17.5,14.8,30.10,WSW,252,0.0,0.0,89,0.00,,---,0.00,VWS V14.01,2013-03-04 03:00:00,
2013-03-03 21:04:00,17.9,14.7,30.10,WSW,252,0.0,0.0,87,0.00,,---,0.00,VWS V14.01,2013-03-04 03:04:00,
2013-03-03 21:09:00,17.9,14.9,30.10,WSW,252,0.0,0.0,88,0.00,,---,0.00,VWS V14.01,2013-03-04 03:09:00,
2013-03-03 21:14:00,17.8,14.6,30.10,WSW,251,0.0,0.0,87,0.00,,---,0.00,VWS V14.01,2013-03-04 03:14:00,
2013-03-03 21:19:00,17.8,14.9,30.10,WSW,252,0.0,0.0,88,0.00,,---,0.00,VWS V14.01,2013-03-04 03:19:00,
2013-03-03 21:24:00,17.9,14.9,30.10,WSW,252,0.0,0.0,88,0.00,,---,0.00,VWS V14.01,2013-03-04 03:24:00,
2013-03-03 21:29:00,17.9,15.2,30.10,WSW,252,0.0,0.0,89,0.00,,---,0.00,VWS V14.01,2013-03-04 03:29:00,
2013-03-03 21:30:00,15.8,13.6,30.10,WSW,252,0.0,0.0,91,0.00,,---,0.00,VWS V14.01,2013-03-04 03:30:00,
2013-03-03 21:34:00,18.0,15.3,30.10,WSW,252,0.0,0.0,89,0.00,,---,0.00,VWS V14.01,2013-03-04 03:34:00,
2013-03-03 21:39:00,17.8,14.9,30.10,WSW,252,0.0,0.0,88,0.00,,---,0.00,VWS V14.01,2013-03-04 03:39:00,
2013-03-03 21:44:00,17.5,14.6,30.10,WSW,252,0.0,0.0,88,0.00,,---,0.00,VWS V14.01,2013-03-04 03:44:00,
2013-03-03 21:49:00,17.7,15.3,30.10,WSW,252,0.0,0.0,90,0.00,,---,0.00,VWS V14.01,2013-03-04 03:49:00,
2013-03-03 21:54:00,17.7,15.3,30.10,WSW,252,0.0,0.0,90,0.00,,---,0.00,VWS V14.01,2013-03-04 03:54:00,
2013-03-03 21:59:00,17.5,15.1,30.10,WSW,252,0.0,0.0,90,0.00,,---,0.00,VWS V14.01,2013-03-04 03:59:00,
2013-03-03 22:00:00,16.9,15.2,30.11,WSW,256,0.0,1.0,93,0.00,,---,0.00,VWS V14.01,2013-03-04 04:00:00,
2013-03-03 22:04:00,17.3,14.9,30.10,WSW,252,0.0,0.0,90,0.00,,---,0.00,VWS V14.01,2013-03-04 04:04:00,
2013-03-03 22:09:00,17.1,14.7,30.10,WSW,252,0.0,0.0,90,0.00,,---,0.00,VWS V14.01,2013-03-04 04:09:00,
2013-03-03 22:14:00,16.7,14.3,30.10,WSW,252,0.0,0.0,90,0.00,,---,0.00,VWS V14.01,2013-03-04 04:14:00,
2013-03-03 22:19:00,16.3,13.9,30.10,WSW,252,0.0,0.0,90,0.00,,---,0.00,VWS V14.01,2013-03-04 04:19:00,
2013-03-03 22:24:00,16.0,13.6,30.10,WSW,252,0.0,0.0,90,0.00,,---,0.00,VWS V14.01,2013-03-04 04:24:00,
2013-03-03 22:29:00,15.8,13.6,30.10,WSW,252,0.0,0.0,91,0.00,,---,0.00,VWS V14.01,2013-03-04 04:29:00,
2013-03-03 22:30:00,18.8,16.4,30.12,West,267,0.0,1.0,90,0.00,,---,0.00,VWS V14.01,2013-03-04 04:30:00,
2013-03-03 22:34:00,15.7,13.5,30.10,WSW,252,0.0,0.0,91,0.00,,---,0.00,VWS V14.01,2013-03-04 04:34:00,
2013-03-03 22:39:00,15.8,13.9,30.10,WSW,252,0.0,0.0,92,0.00,,---,0.00,VWS V14.01,2013-03-04 04:39:00,
2013-03-03 22:44:00,16.0,14.1,30.10,WSW,252,0.0,0.0,92,0.00,,---,0.00,VWS V14.01,2013-03-04 04:44:00,
2013-03-03 22:49:00,16.3,14.6,30.11,WSW,252,0.0,0.0,93,0.00,,---,0.00,VWS V14.01,2013-03-04 04:49:00,
2013-03-03 22:54:00,16.6,15.2,30.11,WSW,256,0.0,1.0,94,0.00,,---,0.00,VWS V14.01,2013-03-04 04:54:00,
2013-03-03 22:59:00,17.0,15.3,30.11,WSW,256,0.0,0.0,93,0.00,,---,0.00,VWS V14.01,2013-03-04 04:59:00,
2013-03-03 23:00:00,17.0,15.3,30.11,WSW,255,0.0,0.0,93,0.00,,---,0.00,VWS V14.01,2013-03-04 05:00:00,
2013-03-03 23:05:00,17.6,16.2,30.11,WSW,256,0.0,0.0,94,0.00,,---,0.00,VWS V14.01,2013-03-04 05:05:00,
2013-03-03 23:10:00,18.0,16.3,30.11,West,263,0.0,1.0,93,0.00,,---,0.00,VWS V14.01,2013-03-04 05:10:00,
2013-03-03 23:15:00,18.2,16.3,30.11,West,263,0.0,1.0,92,0.00,,---,0.00,VWS V14.01,2013-03-04 05:15:00,
2013-03-03 23:20:00,18.3,16.1,30.11,West,263,0.0,1.0,91,0.00,,---,0.00,VWS V14.01,2013-03-04 05:20:00,
2013-03-03 23:25:00,18.6,16.4,30.12,West,267,0.0,1.0,91,0.00,,---,0.00,VWS V14.01,2013-03-04 05:25:00,
2013-03-03 23:30:00,18.8,16.4,30.11,West,267,0.0,0.0,90,0.00,,---,0.00,VWS V14.01,2013-03-04 05:30:00,
2013-03-03 23:35:00,18.6,15.9,30.11,West,267,0.0,0.0,89,0.00,,---,0.00,VWS V14.01,2013-03-04 05:35:00,
2013-03-03 23:40:00,18.6,15.9,30.12,WSW,257,0.0,1.0,89,0.00,,---,0.00,VWS V14.01,2013-03-04 05:40:00,
2013-03-03 23:45:00,19.2,16.5,30.12,WSW,256,0.0,2.0,89,0.00,,---,0.00,VWS V14.01,2013-03-04 05:45:00,
2013-03-03 23:50:00,19.8,16.6,30.12,West,276,0.0,2.0,87,0.00,,---,0.00,VWS V14.01,2013-03-04 05:50:00,
2013-03-03 23:55:00,20.2,16.7,30.12,West,276,1.0,2.0,86,0.00,,---,0.00,VWS V14.01,2013-03-04 05:55:00,